Weather in Verkhorech'ye

Russia / Republic of Crimea     44°41′47″N   33°59′29″E
temp.,
°C
wind,
m/s
gust,
m/s
humid.,
%
clouds,
%
prec.,
mm/h
press.,
hPa
HPBL,
m
3 march, wed
wed300:00+1sw4784100 0.0 1025654
03:00+1sw41090100 0.0 1023543
06:00+2nnw3798100 0.1 1023401
09:00+1n4885100 0.2 1025675
12:00+4n466588 0.0 10271039
15:00+6nnw465350 0.0 10271496
18:00+4nnw256427 0.0 1027360
21:00+2ne007552 0.0 102922
4 march, thu
thu400:00+1sse117889 0.0 102922
03:000sse128066 0.0 102822
06:000se12780 0.0 102722
09:00+3s12640 0.0 1026139
12:00+6wsw34560 0.0 1025858
15:00+7wsw45530 0.0 1023811
18:00+4wsw35670 0.0 1021332
21:00+1s23799 0.0 102145
5 march, fri
fri500:00+1sse23790 0.0 101948
03:00+1s33720 0.0 101838
06:00+2s33630 0.0 101730
09:00+5sse34566 0.0 1016113
12:00+11ssw59490 0.0 1015772
15:00+11sw611450 0.0 1014889
18:00+8ssw386016 0.0 1014372
21:00+5s357451 0.0 101595
6 march, sat
sat600:00+5s338089 0.0 101471
03:00+5ssw347580 0.0 101461
06:00+5s237777 0.0 101428
09:00+7s236887 0.0 1015114
12:00+9nnw3373100 0.0 1016629
15:00+5n4584100 0.0 1017478
18:000n3695100 1.7 1020476
21:00+1n3671100 2.3 1023958
7 march, sun
sun700:00−1n2776100 0.0 1026691
03:00−3ne258174 0.0 1027336
06:00−4ene117018 0.0 102838
09:00−2sse02469 0.0 1029587
12:00+1wnw33410 0.0 10291318
15:00+2wnw54470 0.0 10271315
18:00−1wnw33560 0.0 1025940
21:00−3s11640 0.0 102423